TimePST,TemperatureF,Dew PointF,Humidity,Sea Level PressureIn,VisibilityMPH,Wind Direction,Wind SpeedMPH,Gust SpeedMPH,PrecipitationIn,Events,Conditions,WindDirDegrees,DateUTC
12:05 AM,51.8,51.8,100,29.99,7.0,South,5.8,-,N/A,,Mostly Cloudy,190,2012-12-12 08:05:00
12:22 AM,50.0,50.0,100,29.99,6.0,WSW,6.9,-,N/A,,Scattered Clouds,250,2012-12-12 08:22:00
12:51 AM,50.0,50.0,100,29.96,8.0,WSW,8.1,-,N/A,,Partly Cloudy,240,2012-12-12 08:51:00
1:16 AM,51.8,48.2,88,29.98,10.0,WSW,4.6,-,N/A,,Mostly Cloudy,240,2012-12-12 09:16:00
1:51 AM,51.1,50.0,96,29.94,9.0,Calm,Calm,-,N/A,,Overcast,0,2012-12-12 09:51:00
2:51 AM,50.0,48.9,96,29.93,9.0,SSW,3.5,-,N/A,,Mostly Cloudy,200,2012-12-12 10:51:00
3:51 AM,51.1,50.0,96,29.94,9.0,WSW,6.9,-,N/A,,Overcast,240,2012-12-12 11:51:00
4:03 AM,51.8,50.0,94,29.96,4.0,WSW,6.9,-,N/A,,Overcast,240,2012-12-12 12:03:00
4:17 AM,51.8,48.2,88,29.96,8.0,SW,9.2,-,N/A,,Overcast,230,2012-12-12 12:17:00
4:51 AM,50.0,48.9,96,29.94,10.0,WSW,4.6,-,N/A,,Overcast,240,2012-12-12 12:51:00
5:42 AM,50.0,48.2,94,29.96,10.0,Calm,Calm,-,N/A,,Overcast,0,2012-12-12 13:42:00
5:51 AM,50.0,48.9,96,29.95,10.0,Calm,Calm,-,N/A,,Overcast,0,2012-12-12 13:51:00
6:51 AM,51.1,48.9,92,29.96,10.0,Calm,Calm,-,N/A,,Overcast,0,2012-12-12 14:51:00
7:09 AM,51.8,48.2,88,29.96,10.0,Calm,Calm,-,N/A,,Overcast,0,2012-12-12 15:09:00
7:51 AM,51.1,48.9,92,29.96,10.0,Calm,Calm,-,N/A,,Overcast,0,2012-12-12 15:51:00
8:51 AM,52.0,48.9,89,29.96,10.0,South,3.5,-,N/A,,Overcast,180,2012-12-12 16:51:00
9:44 AM,53.6,48.2,82,29.97,10.0,SW,3.5,-,N/A,,Overcast,220,2012-12-12 17:44:00
9:51 AM,53.1,48.0,83,29.96,10.0,Variable,3.5,-,N/A,,Overcast,0,2012-12-12 17:51:00
10:13 AM,53.6,48.2,82,29.97,10.0,Variable,4.6,-,N/A,,Overcast,0,2012-12-12 18:13:00
10:51 AM,53.1,45.0,74,29.96,10.0,South,5.8,-,N/A,,Overcast,190,2012-12-12 18:51:00
12:51 PM,53.1,46.0,77,29.91,10.0,WSW,5.8,-,N/A,,Overcast,240,2012-12-12 20:51:00
1:44 PM,53.6,46.4,77,29.89,10.0,SSW,5.8,-,N/A,,Overcast,210,2012-12-12 21:44:00
1:51 PM,53.1,46.0,77,29.89,10.0,SSW,5.8,-,N/A,,Overcast,210,2012-12-12 21:51:00
2:51 PM,54.0,46.9,77,29.88,10.0,South,3.5,-,N/A,,Overcast,170,2012-12-12 22:51:00
3:51 PM,53.1,46.0,77,29.88,10.0,Variable,3.5,-,N/A,,Overcast,0,2012-12-12 23:51:00
4:51 PM,53.1,46.0,77,29.87,10.0,SW,3.5,-,N/A,,Overcast,220,2012-12-13 00:51:00
5:51 PM,52.0,46.9,83,29.87,10.0,South,3.5,-,N/A,,Overcast,180,2012-12-13 01:51:00
6:51 PM,52.0,46.9,83,29.86,10.0,SSW,4.6,-,N/A,,Overcast,200,2012-12-13 02:51:00
7:51 PM,52.0,48.0,86,29.86,10.0,Variable,3.5,-,N/A,,Overcast,0,2012-12-13 03:51:00
8:44 PM,51.8,48.2,88,29.87,7.0,SSW,5.8,-,0.00,Rain,Light Rain,200,2012-12-13 04:44:00
8:51 PM,52.0,48.9,89,29.86,8.0,South,5.8,-,0.00,Rain,Light Rain,180,2012-12-13 04:51:00
8:57 PM,51.8,50.0,94,29.87,9.0,South,5.8,-,0.00,Rain,Light Rain,180,2012-12-13 04:57:00
9:11 PM,51.8,50.0,94,29.86,6.0,WSW,5.8,-,0.01,Rain,Light Rain,240,2012-12-13 05:11:00
9:14 PM,51.8,51.8,100,29.86,1.5,SW,6.9,-,0.01,Rain,Light Rain,230,2012-12-13 05:14:00
9:16 PM,51.8,51.8,100,29.86,0.8,WSW,9.2,-,0.02,Rain,Light Rain,240,2012-12-13 05:16:00
9:28 PM,51.8,51.8,100,29.86,0.2,SW,9.2,-,0.02,Fog-Rain,Light Rain,220,2012-12-13 05:28:00
9:48 PM,51.8,51.8,100,29.86,1.2,SSW,4.6,-,0.03,Rain,Light Rain,200,2012-12-13 05:48:00
9:51 PM,51.1,51.1,100,29.86,1.5,SW,8.1,-,0.03,Rain,Light Rain,220,2012-12-13 05:51:00
9:57 PM,51.8,51.8,100,29.86,0.8,SSW,6.9,-,0.00,Rain,Light Rain,210,2012-12-13 05:57:00
10:25 PM,51.8,50.0,94,29.86,1.0,South,3.5,-,0.08,Rain,Rain,180,2012-12-13 06:25:00
10:27 PM,51.8,50.0,94,29.87,2.0,South,4.6,-,0.09,Rain,Rain,190,2012-12-13 06:27:00
10:51 PM,51.1,51.1,100,29.86,1.5,SW,5.8,-,0.15,Rain,Light Rain,220,2012-12-13 06:51:00
10:59 PM,51.8,51.8,100,29.86,0.8,SSW,5.8,-,0.00,Rain,Light Rain,210,2012-12-13 06:59:00
11:51 PM,51.1,51.1,100,29.85,0.5,SW,9.2,-,0.00,Fog,Fog,230,2012-12-13 07:51:00